Tracking 28926 objects as of 23-May-2024
HD Live streaming from Space Station
objects crossing your sky now

COSMOS 1818 COOLANT

Track COSMOS 1818 COOLANT now!
10-day predictions


NORAD ID: 34175
Int'l Code: 1987-011F
Perigee: 755.2 km
Apogee: 790.1 km
Inclination: 65.0 °
Period: 100.1 minutes
Semi major axis: 7143 km
RCS: 0.0033 m2 (small)
Launch date: February 1, 1987
Source: Commonwealth of Independent States (former USSR) (CIS)
Launch site: TYURATAM MISSILE AND SPACE COMPLEX (TTMTR)

Note: This is SATELLITE DEBRIS
Your satellite tracking list
Your tracking list is empty




NASA's NSSDC Master Catalog

Two Line Element Set (TLE):
1 34175U 87011F   24130.43708282  .00002125  00000-0  73354-3 0  9996
2 34175  65.0046 185.2463 0024406 272.1572  87.6721 14.37880234814356
Source of the keplerian elements: AFSPC